Location: Waldport
(44.4270°N, 124.0680°W)
Time: 22:26:15
(UTC-07:00)

Meteor 1-26 Rocket - Visible Passes

Search period start: 23 April 2017 00:00
Search period end: 03 May 2017 00:00
Orbit: 833 x 902 km, 81.3° (Epoch: 22 April)

Date Brightness Start Highest point End Pass type
(mag) Time Alt. Az. Time Alt. Az. Time Alt. Az.
23 Apr 4.6 21:48:41 23° SSE 21:51:50 43° E 21:57:14 10° NNE visible
23 Apr 6.0 23:30:59 12° SW 23:35:16 29° WNW 23:40:14 10° N visible
24 Apr 4.6 21:40:50 17° SSE 21:44:52 43° E 21:50:19 10° NNE visible
24 Apr 6.0 23:23:29 10° SW 23:28:20 28° WNW 23:33:18 10° N visible
25 Apr 4.6 21:32:50 11° SSE 21:37:55 44° E 21:43:24 10° NNE visible
25 Apr 6.1 23:16:34 10° SW 23:21:24 28° WNW 23:26:20 10° N visible
26 Apr 4.6 21:25:36 10° SSE 21:30:59 45° E 21:36:28 10° NNE visible
26 Apr 6.1 23:09:38 10° SW 23:14:28 28° WNW 23:19:23 10° N visible
27 Apr 4.6 21:18:38 10° SSE 21:24:01 46° E 21:29:33 10° NNE visible
27 Apr 6.2 23:02:44 10° SW 23:07:31 27° WNW 23:12:26 10° N visible
28 Apr 4.6 21:11:39 10° SSE 21:17:04 46° E 21:22:37 10° NNE visible
28 Apr 6.2 22:55:48 10° SW 23:00:35 27° WNW 23:05:28 10° N visible
29 Apr 4.6 21:04:41 10° SSE 21:10:07 47° E 21:15:41 10° NNE visible
29 Apr 6.3 22:48:53 10° SW 22:53:39 27° WNW 22:58:32 10° N visible
30 Apr 4.6 20:57:43 10° SSE 21:03:11 48° E 21:08:45 10° NNE visible
30 Apr 6.3 22:41:58 10° WSW 22:46:44 26° WNW 22:51:34 10° NNW visible
01 May 4.5 20:50:45 10° SSE 20:56:14 49° E 21:01:49 10° NNE visible
01 May 6.4 22:35:03 10° WSW 22:39:48 26° WNW 22:44:38 10° NNW visible
02 May 4.5 20:43:47 10° SSE 20:49:17 50° E 20:54:54 10° NNE visible
02 May 6.4 22:28:08 10° WSW 22:32:52 26° WNW 22:37:40 10° NNW visible
